Weather History for Yankton, SD

Change the Weather History Date:

Thursday, May 23, 2013

  Actual Average Record
Temperature  
Mean Temperature 56 °F -  
Max Temperature 69 °F 74 °F 93 °F (1954)
Min Temperature 44 °F 51 °F 31 °F (1963)
Degree Days  
Heating Degree Days 8    
Growing Degree Days 6 (Base 50)    
Moisture  
Dew Point 43 °F    
Average Humidity 63    
Maximum Humidity 94    
Minimum Humidity 37    
Precipitation  
Precipitation 0.00 in - - ()
Sea Level Pressure  
Sea Level Pressure 30.18 in    
Wind  
Wind Speed 10 mph (NE)    
Max Wind Speed 17 mph    
Max Gust Speed 24 mph    
Visibility 10 miles    
Events      
Averages and records for this station are not official NWS values.
T = Trace of Precipitation, MM = Missing Value Source: NWS Daily Summary

Daily Weather History Graph

Daily Weather History Graph

Search for Another Location

Airport:

Trip Planner

Search our weather history database for the weather conditions in past years. The results will help you decide how hot, cold, wet, or windy it might be!

Date:

Astronomy

May. 23, 2013 Rise Set
Actual Time 5:59 AM CDT 8:54 PM CDT
Civil Twilight 5:25 AM CDT 9:27 PM CDT
Nautical Twilight 4:43 AM CDT 10:10 PM CDT
Astronomical Twilight 3:53 AM CDT 11:00 PM CDT
Moon 7:26 PM CDT (5/23) 4:47 AM CDT (5/23)
Length of Visible Light 16h 02m
Length of Day
14h 55m
Waxing Gibbous, 97% of the Moon is Illuminated
May 23
Waxing Gibbous
May 24
Full
May 31
Last Quarter
Jun 8
New
Jun 16
First Quarter

Hourly Weather History & Observations

Time (CDT) Temp. Windchill Dew Point Humidity Pressure Visibility Wind Dir Wind Speed Gust Speed Precip Events Conditions
12:15 AM 51.8 °F - 48.2 °F 88% 30.04 in 10.0 mi North 8.1 mph - N/A   Overcast
12:35 AM 50.0 °F - 48.2 °F 94% 30.03 in 10.0 mi NNW 3.5 mph - N/A   Mostly Cloudy
12:55 AM 50.0 °F - 48.2 °F 94% 30.04 in 10.0 mi NW 8.1 mph - N/A   Overcast
1:15 AM 50.0 °F - 48.2 °F 94% 30.05 in 10.0 mi NNW 8.1 mph - N/A   Mostly Cloudy
1:35 AM 48.2 °F - 46.4 °F 93% 30.05 in 10.0 mi North 8.1 mph - N/A   Scattered Clouds
1:55 AM 48.2 °F - 46.4 °F 93% 30.06 in 10.0 mi North 10.4 mph - N/A   Scattered Clouds
2:15 AM 48.2 °F - 46.4 °F 93% 30.07 in 10.0 mi North 10.4 mph - N/A   Mostly Cloudy
2:35 AM 48.2 °F - 44.6 °F 87% 30.07 in 10.0 mi North 8.1 mph - N/A   Partly Cloudy
2:55 AM 46.4 °F 42.4 °F 42.8 °F 87% 30.09 in 10.0 mi NNW 8.1 mph - N/A   Clear
3:15 AM 46.4 °F 41.9 °F 42.8 °F 87% 30.09 in 10.0 mi NNW 9.2 mph - N/A   Clear
3:35 AM 46.4 °F 42.4 °F 42.8 °F 87% 30.09 in 10.0 mi NNW 8.1 mph - N/A   Clear
3:55 AM 46.4 °F 41.5 °F 42.8 °F 87% 30.11 in 10.0 mi NNW 10.4 mph - N/A   Clear
4:15 AM 46.4 °F 41.5 °F 42.8 °F 87% 30.11 in 10.0 mi North 10.4 mph - N/A   Clear
4:35 AM 46.4 °F 41.1 °F 42.8 °F 87% 30.12 in 10.0 mi NNW 11.5 mph - N/A   Clear
4:55 AM 44.6 °F 39.2 °F 42.8 °F 93% 30.13 in 10.0 mi NNW 10.4 mph - N/A   Clear
5:15 AM 44.6 °F 39.7 °F 42.8 °F 93% 30.14 in 10.0 mi NNW 9.2 mph - N/A   Clear
5:35 AM 44.6 °F 38.8 °F 42.8 °F 93% 30.15 in 10.0 mi North 11.5 mph - N/A   Clear
5:55 AM 44.6 °F 39.2 °F 42.8 °F 93% 30.16 in 10.0 mi North 10.4 mph - N/A   Clear
6:15 AM 44.6 °F 40.2 °F 41.0 °F 87% 30.16 in 10.0 mi North 8.1 mph - N/A   Clear
6:35 AM 46.4 °F 41.9 °F 42.8 °F 87% 30.17 in 10.0 mi North 9.2 mph - N/A   Clear
6:55 AM 46.4 °F 41.5 °F 42.8 °F 87% 30.18 in 10.0 mi North 10.4 mph - N/A   Clear
7:15 AM 48.2 °F - 42.8 °F 82% 30.19 in 10.0 mi North 10.4 mph - N/A   Clear
7:35 AM 50.0 °F - 42.8 °F 76% 30.20 in 10.0 mi NNE 11.5 mph - N/A   Clear
7:55 AM 51.8 °F - 42.8 °F 71% 30.20 in 10.0 mi NNE 12.7 mph - N/A   Clear
8:15 AM 51.8 °F - 42.8 °F 71% 30.21 in 10.0 mi NNE 13.8 mph 17.3 mph N/A   Clear
8:35 AM 53.6 °F - 44.6 °F 72% 30.22 in 10.0 mi NNE 13.8 mph - N/A   Clear
8:55 AM 53.6 °F - 44.6 °F 72% 30.22 in 10.0 mi NE 11.5 mph - N/A   Clear
9:15 AM 53.6 °F - 44.6 °F 72% 30.23 in 10.0 mi ENE 6.9 mph - N/A   Clear
9:35 AM 55.4 °F - 46.4 °F 72% 30.23 in 10.0 mi ENE 10.4 mph - N/A   Clear
9:55 AM 55.4 °F - 46.4 °F 72% 30.23 in 10.0 mi East 9.2 mph - N/A   Clear
10:15 AM 57.2 °F - 44.6 °F 63% 30.24 in 10.0 mi ENE 8.1 mph - N/A   Clear
10:35 AM 57.2 °F - 46.4 °F 67% 30.24 in 10.0 mi ENE 11.5 mph - N/A   Clear
10:55 AM 57.2 °F - 44.6 °F 63% 30.25 in 10.0 mi NE 6.9 mph - N/A   Clear
11:15 AM 59.0 °F - 46.4 °F 63% 30.25 in 10.0 mi NE 9.2 mph - N/A   Clear
11:35 AM 60.8 °F - 46.4 °F 59% 30.25 in 10.0 mi East 5.8 mph - N/A   Clear
11:55 AM 60.8 °F - 46.4 °F 59% 30.25 in 10.0 mi NE 5.8 mph - N/A   Clear
12:15 PM 62.6 °F - 46.4 °F 55% 30.25 in 10.0 mi ENE 6.9 mph - N/A   Partly Cloudy
12:35 PM 62.6 °F - 46.4 °F 55% 30.24 in 10.0 mi East 11.5 mph 16.1 mph N/A   Scattered Clouds
12:55 PM 64.4 °F - 46.4 °F 52% 30.23 in 10.0 mi East 13.8 mph 18.4 mph N/A   Scattered Clouds
1:15 PM 64.4 °F - 46.4 °F 52% 30.23 in 10.0 mi ENE 15.0 mph 18.4 mph N/A   Scattered Clouds
1:35 PM 64.4 °F - 48.2 °F 56% 30.22 in 10.0 mi ENE 15.0 mph 23.0 mph N/A   Scattered Clouds
1:55 PM 66.2 °F - 46.4 °F 49% 30.21 in 10.0 mi ENE 15.0 mph 21.9 mph N/A   Scattered Clouds
2:15 PM 66.2 °F - 46.4 °F 49% 30.21 in 10.0 mi NE 17.3 mph 21.9 mph N/A   Partly Cloudy
2:35 PM 66.2 °F - 46.4 °F 49% 30.21 in 10.0 mi ENE 15.0 mph 21.9 mph N/A   Clear
2:55 PM 66.2 °F - 46.4 °F 49% 30.21 in 10.0 mi NE 12.7 mph 20.7 mph N/A   Clear
3:15 PM 68.0 °F - 46.4 °F 46% 30.21 in 10.0 mi East 12.7 mph - N/A   Partly Cloudy
3:35 PM 68.0 °F - 44.6 °F 43% 30.21 in 10.0 mi ENE 12.7 mph 20.7 mph N/A   Clear
3:55 PM 68.0 °F - 44.6 °F 43% 30.21 in 10.0 mi East 9.2 mph 24.2 mph N/A   Clear
4:15 PM 68.0 °F - 44.6 °F 43% 30.21 in 10.0 mi ENE 15.0 mph 19.6 mph N/A   Clear
4:35 PM 68.0 °F - 44.6 °F 43% 30.21 in 10.0 mi ENE 13.8 mph 19.6 mph N/A   Clear
4:55 PM 69.8 °F - 42.8 °F 38% 30.20 in 10.0 mi East 11.5 mph 19.6 mph N/A   Clear
5:15 PM 69.8 °F - 42.8 °F 38% 30.20 in 10.0 mi ENE 12.7 mph 16.1 mph N/A   Clear
5:35 PM 69.8 °F - 42.8 °F 38% 30.20 in 10.0 mi East 12.7 mph - N/A   Clear
5:55 PM 69.8 °F - 42.8 °F 38% 30.20 in 10.0 mi East 9.2 mph - N/A   Clear
6:15 PM 68.0 °F - 41.0 °F 37% 30.20 in 10.0 mi East 11.5 mph 18.4 mph N/A   Clear
6:35 PM 68.0 °F - 41.0 °F 37% 30.20 in 10.0 mi East 12.7 mph 19.6 mph N/A   Clear
6:55 PM 68.0 °F - 41.0 °F 37% 30.19 in 10.0 mi East 12.7 mph - N/A   Clear
7:15 PM 66.2 °F - 39.2 °F 37% 30.19 in 10.0 mi East 11.5 mph 16.1 mph N/A   Clear
7:35 PM 66.2 °F - 39.2 °F 37% 30.19 in 10.0 mi East 11.5 mph - N/A   Clear
7:55 PM 64.4 °F - 39.2 °F 40% 30.19 in 10.0 mi East 8.1 mph - N/A   Clear
8:15 PM 64.4 °F - 39.2 °F 40% 30.19 in 10.0 mi East 8.1 mph - N/A   Clear
8:35 PM 64.4 °F - 39.2 °F 40% 30.19 in 10.0 mi East 8.1 mph - N/A   Clear
8:55 PM 62.6 °F - 39.2 °F 42% 30.20 in 10.0 mi East 5.8 mph - N/A   Clear
9:15 PM 60.8 °F - 39.2 °F 45% 30.20 in 10.0 mi East 6.9 mph - N/A   Clear
9:35 PM 59.0 °F - 39.2 °F 48% 30.20 in 10.0 mi East 6.9 mph - N/A   Clear
9:55 PM 57.2 °F - 37.4 °F 48% 30.21 in 10.0 mi East 6.9 mph - N/A   Clear
10:15 PM 57.2 °F - 37.4 °F 48% 30.22 in 10.0 mi East 6.9 mph - N/A   Clear
10:35 PM 55.4 °F - 35.6 °F 47% 30.23 in 10.0 mi East 10.4 mph - N/A   Clear
10:55 PM 57.2 °F - 35.6 °F 44% 30.23 in 10.0 mi East 8.1 mph - N/A   Clear
11:15 PM 55.4 °F - 35.6 °F 47% 30.24 in 10.0 mi East 9.2 mph - N/A   Clear
11:35 PM 53.6 °F - 37.4 °F 54% 30.24 in 10.0 mi East 9.2 mph - N/A   Clear
11:55 PM 53.6 °F - 37.4 °F 54% 30.24 in 10.0 mi East 9.2 mph - N/A   Clear